Year,Month,Day,Hour,Minute,Value (Times are PST for temperature in C)
2015,07,20,00,00,26.40
2015,07,20,00,01,26.50
2015,07,20,00,02,26.50
2015,07,20,00,03,26.50
2015,07,20,00,04,26.50
2015,07,20,00,05,26.50
2015,07,20,00,06,26.60
2015,07,20,00,07,26.60
2015,07,20,00,08,26.60
2015,07,20,00,09,26.60
2015,07,20,00,10,26.50
2015,07,20,00,11,26.40
2015,07,20,00,12,26.30
2015,07,20,00,13,26.20
2015,07,20,00,14,26.10
2015,07,20,00,15,26.10
2015,07,20,00,16,26.00
2015,07,20,00,17,25.90
2015,07,20,00,18,25.80
2015,07,20,00,19,25.80
2015,07,20,00,20,25.80
2015,07,20,00,21,25.80
2015,07,20,00,22,25.70
2015,07,20,00,23,25.50
2015,07,20,00,24,25.30
2015,07,20,00,25,25.20
2015,07,20,00,26,25.10
2015,07,20,00,27,25.10
2015,07,20,00,28,25.00
2015,07,20,00,29,25.00
2015,07,20,00,30,24.90
2015,07,20,00,31,24.80
2015,07,20,00,32,24.70
2015,07,20,00,33,24.60
2015,07,20,00,34,24.50
2015,07,20,00,35,24.40
2015,07,20,00,36,24.30
2015,07,20,00,37,24.30
2015,07,20,00,38,24.20
2015,07,20,00,39,24.10
2015,07,20,00,40,24.10
2015,07,20,00,41,24.10
2015,07,20,00,42,24.10
2015,07,20,00,43,24.00
2015,07,20,00,44,24.00
2015,07,20,00,45,24.00
2015,07,20,00,46,23.90
2015,07,20,00,47,23.90
2015,07,20,00,48,23.80
2015,07,20,00,49,23.70
2015,07,20,00,50,23.60
2015,07,20,00,51,23.50
2015,07,20,00,52,23.50
2015,07,20,00,53,23.40
2015,07,20,00,54,23.40
2015,07,20,00,55,23.30
2015,07,20,00,56,23.20
2015,07,20,00,57,23.10
2015,07,20,00,58,23.00
2015,07,20,00,59,23.00
2015,07,20,01,00,23.00
2015,07,20,01,01,22.90
2015,07,20,01,02,22.90
2015,07,20,01,03,22.90
2015,07,20,01,04,22.90
2015,07,20,01,05,22.90
2015,07,20,01,06,22.90
2015,07,20,01,07,22.90
2015,07,20,01,08,22.90
2015,07,20,01,09,22.80
2015,07,20,01,10,22.80
2015,07,20,01,11,22.80
2015,07,20,01,12,22.70
2015,07,20,01,13,22.70
2015,07,20,01,14,22.70
2015,07,20,01,15,22.60
2015,07,20,01,16,22.40
2015,07,20,01,17,22.30
2015,07,20,01,18,22.20
2015,07,20,01,19,22.10
2015,07,20,01,20,21.90
2015,07,20,01,21,21.80
2015,07,20,01,22,21.80
2015,07,20,01,23,21.90
2015,07,20,01,24,21.90
2015,07,20,01,25,21.90
2015,07,20,01,26,21.80
2015,07,20,01,27,21.70
2015,07,20,01,28,21.60
2015,07,20,01,29,21.60
2015,07,20,01,30,21.50
2015,07,20,01,31,21.40
2015,07,20,01,32,21.30
2015,07,20,01,33,21.30
2015,07,20,01,34,21.30
2015,07,20,01,35,21.20
2015,07,20,01,36,21.20
2015,07,20,01,37,21.20
2015,07,20,01,38,21.20
2015,07,20,01,39,21.20
2015,07,20,01,40,21.10
2015,07,20,01,41,21.10
2015,07,20,01,42,21.10
2015,07,20,01,43,21.10
2015,07,20,01,44,21.10
2015,07,20,01,45,21.10
2015,07,20,01,46,21.00
2015,07,20,01,47,21.00
2015,07,20,01,48,20.90
2015,07,20,01,49,20.90
2015,07,20,01,50,20.90
2015,07,20,01,51,20.90
2015,07,20,01,52,20.90
2015,07,20,01,53,20.80
2015,07,20,01,54,20.80
2015,07,20,01,55,20.80
2015,07,20,01,56,20.70
2015,07,20,01,57,20.70
2015,07,20,01,58,20.70
2015,07,20,01,59,20.60
2015,07,20,02,00,20.60
2015,07,20,02,01,20.60
2015,07,20,02,02,20.60
2015,07,20,02,03,20.60
2015,07,20,02,04,20.50
2015,07,20,02,05,20.50
2015,07,20,02,06,20.40
2015,07,20,02,07,20.40
2015,07,20,02,08,20.30
2015,07,20,02,09,20.30
2015,07,20,02,10,20.30
2015,07,20,02,11,20.20
2015,07,20,02,12,20.20
2015,07,20,02,13,20.20
2015,07,20,02,14,20.10
2015,07,20,02,15,20.10
2015,07,20,02,16,20.10
2015,07,20,02,17,20.10
2015,07,20,02,18,20.10
2015,07,20,02,19,20.10
2015,07,20,02,20,20.10
2015,07,20,02,21,20.00
2015,07,20,02,22,20.00
2015,07,20,02,23,19.90
2015,07,20,02,24,19.90
2015,07,20,02,25,19.90
2015,07,20,02,26,19.90
2015,07,20,02,27,19.90
2015,07,20,02,28,19.90
2015,07,20,02,29,19.80
2015,07,20,02,30,19.80
2015,07,20,02,31,19.70
2015,07,20,02,32,19.70
2015,07,20,02,33,19.60
2015,07,20,02,34,19.60
2015,07,20,02,35,19.60
2015,07,20,02,36,19.60
2015,07,20,02,37,19.50
2015,07,20,02,38,19.50
2015,07,20,02,39,19.40
2015,07,20,02,40,19.40
2015,07,20,02,41,19.40
2015,07,20,02,42,19.40
2015,07,20,02,43,19.40
2015,07,20,02,44,19.40
2015,07,20,02,45,19.40
2015,07,20,02,46,19.30
2015,07,20,02,47,19.30
2015,07,20,02,48,19.30
2015,07,20,02,49,19.20
2015,07,20,02,50,19.20
2015,07,20,02,51,19.10
2015,07,20,02,52,19.10
2015,07,20,02,53,19.10
2015,07,20,02,54,19.00
2015,07,20,02,55,19.00
2015,07,20,02,56,19.00
2015,07,20,02,57,18.90
2015,07,20,02,58,18.90
2015,07,20,02,59,18.90
2015,07,20,03,00,18.90
2015,07,20,03,01,18.90
2015,07,20,03,02,18.90
2015,07,20,03,03,18.90
2015,07,20,03,04,18.80
2015,07,20,03,05,18.80
2015,07,20,03,06,18.80
2015,07,20,03,07,18.80
2015,07,20,03,08,18.80
2015,07,20,03,09,18.80
2015,07,20,03,10,18.80
2015,07,20,03,11,18.80
2015,07,20,03,12,18.80
2015,07,20,03,13,18.80
2015,07,20,03,14,18.80
2015,07,20,03,15,18.80
2015,07,20,03,16,18.70
2015,07,20,03,17,18.70
2015,07,20,03,18,18.70
2015,07,20,03,19,18.70
2015,07,20,03,20,18.70
2015,07,20,03,21,18.60
2015,07,20,03,22,18.60
2015,07,20,03,23,18.60
2015,07,20,03,24,18.60
2015,07,20,03,25,18.60
2015,07,20,03,26,18.60
2015,07,20,03,27,18.60
2015,07,20,03,28,18.50
2015,07,20,03,29,18.50
2015,07,20,03,30,18.50
2015,07,20,03,31,18.50
2015,07,20,03,32,18.50
2015,07,20,03,33,18.40
2015,07,20,03,34,18.40
2015,07,20,03,35,18.40
2015,07,20,03,36,18.40
2015,07,20,03,37,18.40
2015,07,20,03,38,18.40
2015,07,20,03,39,18.30
2015,07,20,03,40,18.30
2015,07,20,03,41,18.30
2015,07,20,03,42,18.30
2015,07,20,03,43,18.30
2015,07,20,03,44,18.30
2015,07,20,03,45,18.30
2015,07,20,03,46,18.30
2015,07,20,03,47,18.20
2015,07,20,03,48,18.20
2015,07,20,03,49,18.20
2015,07,20,03,50,18.20
2015,07,20,03,51,18.20
2015,07,20,03,52,18.20
2015,07,20,03,53,18.20
2015,07,20,03,54,18.20
2015,07,20,03,55,18.10
2015,07,20,03,56,18.10
2015,07,20,03,57,18.10
2015,07,20,03,58,18.10
2015,07,20,03,59,18.10
2015,07,20,04,00,18.00
2015,07,20,04,01,18.00
2015,07,20,04,02,18.00
2015,07,20,04,03,17.90
2015,07,20,04,04,17.90
2015,07,20,04,05,17.90
2015,07,20,04,06,17.80
2015,07,20,04,07,17.80
2015,07,20,04,08,17.80
2015,07,20,04,09,17.80
2015,07,20,04,10,17.70
2015,07,20,04,11,17.70
2015,07,20,04,12,17.70
2015,07,20,04,13,17.70
2015,07,20,04,14,17.70
2015,07,20,04,15,17.60
2015,07,20,04,16,17.60
2015,07,20,04,17,17.60
2015,07,20,04,18,17.50
2015,07,20,04,19,17.50
2015,07,20,04,20,17.40
2015,07,20,04,21,17.40
2015,07,20,04,22,17.30
2015,07,20,04,23,17.30
2015,07,20,04,24,17.30
2015,07,20,04,25,17.30
2015,07,20,04,26,17.30
2015,07,20,04,27,17.30
2015,07,20,04,28,17.30
2015,07,20,04,29,17.30
2015,07,20,04,30,17.30
2015,07,20,04,31,17.30
2015,07,20,04,32,17.30
2015,07,20,04,33,17.20
2015,07,20,04,34,17.20
2015,07,20,04,35,17.20
2015,07,20,04,36,17.20
2015,07,20,04,37,17.10
2015,07,20,04,38,17.10
2015,07,20,04,39,17.10
2015,07,20,04,40,17.00
2015,07,20,04,41,17.00
2015,07,20,04,42,16.90
2015,07,20,04,43,16.90
2015,07,20,04,44,16.90
2015,07,20,04,45,16.90
2015,07,20,04,46,16.80
2015,07,20,04,47,16.70
2015,07,20,04,48,16.60
2015,07,20,04,49,16.50
2015,07,20,04,50,16.40
2015,07,20,04,51,16.40
2015,07,20,04,52,16.30
2015,07,20,04,53,16.30
2015,07,20,04,54,16.30
2015,07,20,04,55,16.30
2015,07,20,04,56,16.30
2015,07,20,04,57,16.30
2015,07,20,04,58,16.20
2015,07,20,04,59,16.30
2015,07,20,05,00,16.20
2015,07,20,05,01,16.20
2015,07,20,05,02,16.20
2015,07,20,05,03,16.20
2015,07,20,05,04,16.20
2015,07,20,05,05,16.20
2015,07,20,05,06,16.20
2015,07,20,05,07,16.20
2015,07,20,05,08,16.20
2015,07,20,05,09,16.20
2015,07,20,05,10,16.10
2015,07,20,05,11,16.10
2015,07,20,05,12,16.10
2015,07,20,05,13,16.10
2015,07,20,05,14,16.10
2015,07,20,05,15,16.10
2015,07,20,05,16,16.10
2015,07,20,05,17,16.10
2015,07,20,05,18,16.10
2015,07,20,05,19,16.00
2015,07,20,05,20,16.00
2015,07,20,05,21,16.10
2015,07,20,05,22,16.10
2015,07,20,05,23,16.10
2015,07,20,05,24,16.10
2015,07,20,05,25,16.10
2015,07,20,05,26,16.10
2015,07,20,05,27,16.10
2015,07,20,05,28,16.10
2015,07,20,05,29,16.00
2015,07,20,05,30,16.00
2015,07,20,05,31,16.00
2015,07,20,05,32,16.00
2015,07,20,05,33,16.00
2015,07,20,05,34,15.90
2015,07,20,05,35,15.90
2015,07,20,05,36,15.90
2015,07,20,05,37,15.90
2015,07,20,05,38,15.90
2015,07,20,05,39,15.90
2015,07,20,05,40,15.90
2015,07,20,05,41,15.90
2015,07,20,05,42,15.90
2015,07,20,05,43,15.90
2015,07,20,05,44,15.90
2015,07,20,05,45,15.80
2015,07,20,05,46,15.80
2015,07,20,05,47,15.80
2015,07,20,05,48,15.70
2015,07,20,05,49,15.70
2015,07,20,05,50,15.70
2015,07,20,05,51,15.70
2015,07,20,05,52,15.70
2015,07,20,05,53,15.70
2015,07,20,05,54,15.70
2015,07,20,05,55,15.70
2015,07,20,05,56,15.70
2015,07,20,05,57,15.80
2015,07,20,05,58,15.80
2015,07,20,05,59,15.80
2015,07,20,06,00,15.90
2015,07,20,06,01,15.90
2015,07,20,06,02,16.00
2015,07,20,06,03,16.10
2015,07,20,06,04,16.10
2015,07,20,06,05,16.10
2015,07,20,06,06,16.20
2015,07,20,06,07,16.20
2015,07,20,06,08,16.30
2015,07,20,06,09,16.30
2015,07,20,06,10,16.30
2015,07,20,06,11,16.30
2015,07,20,06,12,16.30
2015,07,20,06,13,16.30
2015,07,20,06,14,16.40
2015,07,20,06,15,16.40
2015,07,20,06,16,16.40
2015,07,20,06,17,16.40
2015,07,20,06,18,16.40
2015,07,20,06,19,16.40
2015,07,20,06,20,16.50
2015,07,20,06,21,16.50
2015,07,20,06,22,16.50
2015,07,20,06,23,16.50
2015,07,20,06,24,16.60
2015,07,20,06,25,16.60
2015,07,20,06,26,16.60
2015,07,20,06,27,16.60
2015,07,20,06,28,16.60
2015,07,20,06,29,16.70
2015,07,20,06,30,16.70
2015,07,20,06,31,16.80
2015,07,20,06,32,16.80
2015,07,20,06,33,16.80
2015,07,20,06,34,16.90
2015,07,20,06,35,16.90
2015,07,20,06,36,17.00
2015,07,20,06,37,17.00
2015,07,20,06,38,17.10
2015,07,20,06,39,17.10
2015,07,20,06,40,17.10
2015,07,20,06,41,17.20
2015,07,20,06,42,17.20
2015,07,20,06,43,17.20
2015,07,20,06,44,17.30
2015,07,20,06,45,17.30
2015,07,20,06,46,17.30
2015,07,20,06,47,17.40
2015,07,20,06,48,17.40
2015,07,20,06,49,17.40
2015,07,20,06,50,17.40
2015,07,20,06,51,17.40
2015,07,20,06,52,17.30
2015,07,20,06,53,17.30
2015,07,20,06,54,17.20
2015,07,20,06,55,17.20
2015,07,20,06,56,17.20
2015,07,20,06,57,17.30
2015,07,20,06,58,17.40
2015,07,20,06,59,17.50
2015,07,20,07,00,17.50
2015,07,20,07,01,17.70
2015,07,20,07,02,17.70
2015,07,20,07,03,17.80
2015,07,20,07,04,17.90
2015,07,20,07,05,18.00
2015,07,20,07,06,18.10
2015,07,20,07,07,18.10
2015,07,20,07,08,18.20
2015,07,20,07,09,18.30
2015,07,20,07,10,18.30
2015,07,20,07,11,18.40
2015,07,20,07,12,18.50
2015,07,20,07,13,18.50
2015,07,20,07,14,18.60
2015,07,20,07,15,18.60
2015,07,20,07,16,18.60
2015,07,20,07,17,18.60
2015,07,20,07,18,18.60
2015,07,20,07,19,18.70
2015,07,20,07,20,18.70
2015,07,20,07,21,18.70
2015,07,20,07,22,18.80
2015,07,20,07,23,18.80
2015,07,20,07,24,18.80
2015,07,20,07,25,18.80
2015,07,20,07,26,18.80
2015,07,20,07,27,18.80
2015,07,20,07,28,18.80
2015,07,20,07,29,18.90
2015,07,20,07,30,18.90
2015,07,20,07,31,18.90
2015,07,20,07,32,18.90
2015,07,20,07,33,19.00
2015,07,20,07,34,19.00
2015,07,20,07,35,19.00
2015,07,20,07,36,19.10
2015,07,20,07,37,19.10
2015,07,20,07,38,19.10
2015,07,20,07,39,19.10
2015,07,20,07,40,19.20
2015,07,20,07,41,19.20
2015,07,20,07,42,19.10
2015,07,20,07,43,19.00
2015,07,20,07,44,19.00
2015,07,20,07,45,18.90
2015,07,20,07,46,18.90
2015,07,20,07,47,19.00
2015,07,20,07,48,19.00
2015,07,20,07,49,19.10
2015,07,20,07,50,19.10
2015,07,20,07,51,19.20
2015,07,20,07,52,19.30
2015,07,20,07,53,19.30
2015,07,20,07,54,19.30
2015,07,20,07,55,19.40
2015,07,20,07,56,19.50
2015,07,20,07,57,19.60
2015,07,20,07,58,19.60
2015,07,20,07,59,19.70
2015,07,20,08,00,19.80
2015,07,20,08,01,19.80
2015,07,20,08,02,20.00
2015,07,20,08,03,20.00
2015,07,20,08,04,20.10
2015,07,20,08,05,20.10
2015,07,20,08,06,20.10
2015,07,20,08,07,20.10
2015,07,20,08,08,20.10
2015,07,20,08,09,20.10
2015,07,20,08,10,20.00
2015,07,20,08,11,19.90
2015,07,20,08,12,19.90
2015,07,20,08,13,19.90
2015,07,20,08,14,19.90
2015,07,20,08,15,19.80
2015,07,20,08,16,19.80
2015,07,20,08,17,19.80
2015,07,20,08,18,19.90
2015,07,20,08,19,20.00
2015,07,20,08,20,20.10
2015,07,20,08,21,20.20
2015,07,20,08,22,20.20
2015,07,20,08,23,20.30
2015,07,20,08,24,20.30
2015,07,20,08,25,20.30
2015,07,20,08,26,20.40
2015,07,20,08,27,20.40
2015,07,20,08,28,20.40
2015,07,20,08,29,20.50
2015,07,20,08,30,20.50
2015,07,20,08,31,20.60
2015,07,20,08,32,20.60
2015,07,20,08,33,20.60
2015,07,20,08,34,20.70
2015,07,20,08,35,20.70
2015,07,20,08,36,20.70
2015,07,20,08,37,20.70
2015,07,20,08,38,20.70
2015,07,20,08,39,20.70
2015,07,20,08,40,20.70
2015,07,20,08,41,20.70
2015,07,20,08,42,20.70
2015,07,20,08,43,20.60
2015,07,20,08,44,20.60
2015,07,20,08,45,20.50
2015,07,20,08,46,20.50
2015,07,20,08,47,20.60
2015,07,20,08,48,20.60
2015,07,20,08,49,20.60
2015,07,20,08,50,20.60
2015,07,20,08,51,20.70
2015,07,20,08,52,20.70
2015,07,20,08,53,20.70
2015,07,20,08,54,20.70
2015,07,20,08,55,20.70
2015,07,20,08,56,20.70
2015,07,20,08,57,20.70
2015,07,20,08,58,20.70
2015,07,20,08,59,20.70
2015,07,20,09,00,20.70
2015,07,20,09,01,20.60
2015,07,20,09,02,20.60
2015,07,20,09,03,20.60
2015,07,20,09,04,20.70
2015,07,20,09,05,20.70
2015,07,20,09,06,20.80
2015,07,20,09,07,20.80
2015,07,20,09,08,20.80
2015,07,20,09,09,20.80
2015,07,20,09,10,20.80
2015,07,20,09,11,20.80
2015,07,20,09,12,20.80
2015,07,20,09,13,20.80
2015,07,20,09,14,20.80
2015,07,20,09,15,20.80
2015,07,20,09,16,20.70
2015,07,20,09,17,20.70
2015,07,20,09,18,20.70
2015,07,20,09,19,20.80
2015,07,20,09,20,20.80
2015,07,20,09,21,20.90
2015,07,20,09,22,20.90
2015,07,20,09,23,21.00
2015,07,20,09,24,21.00
2015,07,20,09,25,21.10
2015,07,20,09,26,21.10
2015,07,20,09,27,21.10
2015,07,20,09,28,21.10
2015,07,20,09,29,21.10
2015,07,20,09,30,21.10
2015,07,20,09,31,21.20
2015,07,20,09,32,21.30
2015,07,20,09,33,21.40
2015,07,20,09,34,21.40
2015,07,20,09,35,21.50
2015,07,20,09,36,21.70
2015,07,20,09,37,21.70
2015,07,20,09,38,21.80
2015,07,20,09,39,21.80
2015,07,20,09,40,21.90
2015,07,20,09,41,21.90
2015,07,20,09,42,21.90
2015,07,20,09,43,21.80
2015,07,20,09,44,21.70
2015,07,20,09,45,21.50
2015,07,20,09,46,21.40
2015,07,20,09,47,21.30
2015,07,20,09,48,21.30
2015,07,20,09,49,21.20
2015,07,20,09,50,21.20
2015,07,20,09,51,21.20
2015,07,20,09,52,21.30
2015,07,20,09,53,21.30
2015,07,20,09,54,21.40
2015,07,20,09,55,21.40
2015,07,20,09,56,21.40
2015,07,20,09,57,21.40
2015,07,20,09,58,21.40
2015,07,20,09,59,21.50
2015,07,20,10,00,21.60
2015,07,20,10,01,21.60
2015,07,20,10,02,21.70
2015,07,20,10,03,21.80
2015,07,20,10,04,21.80
2015,07,20,10,05,21.80
2015,07,20,10,06,21.60
2015,07,20,10,07,21.50
2015,07,20,10,08,21.40
2015,07,20,10,09,21.50
2015,07,20,10,10,21.60
2015,07,20,10,11,21.70
2015,07,20,10,12,21.70
2015,07,20,10,13,21.80
2015,07,20,10,14,21.90
2015,07,20,10,15,22.00
2015,07,20,10,16,22.00
2015,07,20,10,17,22.00
2015,07,20,10,18,22.00
2015,07,20,10,19,22.10
2015,07,20,10,20,22.20
2015,07,20,10,21,22.20
2015,07,20,10,22,22.20
2015,07,20,10,23,22.30
2015,07,20,10,24,22.30
2015,07,20,10,25,22.40
2015,07,20,10,26,22.40
2015,07,20,10,27,22.40
2015,07,20,10,28,22.40
2015,07,20,10,29,22.30
2015,07,20,10,30,22.20
2015,07,20,10,31,22.10
2015,07,20,10,32,22.10
2015,07,20,10,33,22.20
2015,07,20,10,34,22.20
2015,07,20,10,35,22.30
2015,07,20,10,36,22.40
2015,07,20,10,37,22.40
2015,07,20,10,38,22.50
2015,07,20,10,39,22.40
2015,07,20,10,40,22.40
2015,07,20,10,41,22.40
2015,07,20,10,42,22.60
2015,07,20,10,43,22.70
2015,07,20,10,44,22.70
2015,07,20,10,45,22.70
2015,07,20,10,46,22.70
2015,07,20,10,47,22.80
2015,07,20,10,48,22.80
2015,07,20,10,49,22.90
2015,07,20,10,50,23.00
2015,07,20,10,51,23.10
2015,07,20,10,52,23.20
2015,07,20,10,53,23.20
2015,07,20,10,54,23.30
2015,07,20,10,55,23.30
2015,07,20,10,56,23.30
2015,07,20,10,57,23.40
2015,07,20,10,58,23.40
2015,07,20,10,59,23.40
2015,07,20,11,00,23.40
2015,07,20,11,01,23.40
2015,07,20,11,02,23.30
2015,07,20,11,03,23.40
2015,07,20,11,04,23.60
2015,07,20,11,05,23.60
2015,07,20,11,06,23.50
2015,07,20,11,07,23.60
2015,07,20,11,08,23.60
2015,07,20,11,09,23.60
2015,07,20,11,10,23.60
2015,07,20,11,11,23.60
2015,07,20,11,12,23.60
2015,07,20,11,13,23.70
2015,07,20,11,14,23.80
2015,07,20,11,15,23.90
2015,07,20,11,16,23.80
2015,07,20,11,17,23.80
2015,07,20,11,18,23.80
2015,07,20,11,19,23.80
2015,07,20,11,20,23.70
2015,07,20,11,21,23.60
2015,07,20,11,22,23.70
2015,07,20,11,23,23.70
2015,07,20,11,24,23.60
2015,07,20,11,25,23.70
2015,07,20,11,26,23.70
2015,07,20,11,27,23.70
2015,07,20,11,28,23.70
2015,07,20,11,29,23.70
2015,07,20,11,30,23.70
2015,07,20,11,31,23.70
2015,07,20,11,32,23.80
2015,07,20,11,33,23.70
2015,07,20,11,34,23.60
2015,07,20,11,35,23.40
2015,07,20,11,36,23.20
2015,07,20,11,37,23.00
2015,07,20,11,38,23.00
2015,07,20,11,39,22.90
2015,07,20,11,40,22.90
2015,07,20,11,41,22.80
2015,07,20,11,42,22.80
2015,07,20,11,43,22.80
2015,07,20,11,44,22.80
2015,07,20,11,45,22.70
2015,07,20,11,46,22.70
2015,07,20,11,47,22.80
2015,07,20,11,48,22.80
2015,07,20,11,49,22.90
2015,07,20,11,50,22.90
2015,07,20,11,51,23.00
2015,07,20,11,52,23.10
2015,07,20,11,53,23.00
2015,07,20,11,54,23.00
2015,07,20,11,55,22.90
2015,07,20,11,56,22.80
2015,07,20,11,57,22.80
2015,07,20,11,58,22.90
2015,07,20,11,59,23.00
2015,07,20,12,00,23.00
2015,07,20,12,01,22.70
2015,07,20,12,02,22.40
2015,07,20,12,03,22.20
2015,07,20,12,04,22.10
2015,07,20,12,05,22.10
2015,07,20,12,06,22.20
2015,07,20,12,07,22.40
2015,07,20,12,08,22.60
2015,07,20,12,09,22.60
2015,07,20,12,10,22.50
2015,07,20,12,11,22.50
2015,07,20,12,12,22.50
2015,07,20,12,13,22.40
2015,07,20,12,14,22.30
2015,07,20,12,15,22.40
2015,07,20,12,16,22.30
2015,07,20,12,17,22.20
2015,07,20,12,18,22.10
2015,07,20,12,19,22.00
2015,07,20,12,20,22.00
2015,07,20,12,21,21.90
2015,07,20,12,22,21.90
2015,07,20,12,23,21.90
2015,07,20,12,24,21.80
2015,07,20,12,25,21.90
2015,07,20,12,26,22.00
2015,07,20,12,27,22.10
2015,07,20,12,28,22.20
2015,07,20,12,29,22.30
2015,07,20,12,30,22.30
2015,07,20,12,31,22.40
2015,07,20,12,32,22.40
2015,07,20,12,33,22.30
2015,07,20,12,34,22.30
2015,07,20,12,35,22.30
2015,07,20,12,36,22.40
2015,07,20,12,37,22.50
2015,07,20,12,38,22.60
2015,07,20,12,39,22.80
2015,07,20,12,40,22.80
2015,07,20,12,41,22.90
2015,07,20,12,42,23.00
2015,07,20,12,43,23.10
2015,07,20,12,44,23.20
2015,07,20,12,45,23.20
2015,07,20,12,46,23.10
2015,07,20,12,47,23.00
2015,07,20,12,48,22.70
2015,07,20,12,49,22.50
2015,07,20,12,50,22.30
2015,07,20,12,51,22.30
2015,07,20,12,52,22.30
2015,07,20,12,53,22.20
2015,07,20,12,54,22.20
2015,07,20,12,55,22.10
2015,07,20,12,56,22.00
2015,07,20,12,57,22.00
2015,07,20,12,58,22.00
2015,07,20,12,59,22.10
2015,07,20,13,00,22.20
2015,07,20,13,01,22.30
2015,07,20,13,02,22.40
2015,07,20,13,03,22.50
2015,07,20,13,04,22.50
2015,07,20,13,05,22.50
2015,07,20,13,06,22.50
2015,07,20,13,07,22.40
2015,07,20,13,08,22.40
2015,07,20,13,09,22.40
2015,07,20,13,10,22.40
2015,07,20,13,11,22.50
2015,07,20,13,12,22.70
2015,07,20,13,13,22.70
2015,07,20,13,14,22.70
2015,07,20,13,15,22.50
2015,07,20,13,16,22.40
2015,07,20,13,17,22.40
2015,07,20,13,18,22.50
2015,07,20,13,19,22.60
2015,07,20,13,20,22.70
2015,07,20,13,21,22.80
2015,07,20,13,22,22.90
2015,07,20,13,23,23.00
2015,07,20,13,24,23.20
2015,07,20,13,25,23.30
2015,07,20,13,26,23.30
2015,07,20,13,27,23.30
2015,07,20,13,28,23.20
2015,07,20,13,29,23.10
2015,07,20,13,30,22.90
2015,07,20,13,31,22.80
2015,07,20,13,32,22.80
2015,07,20,13,33,22.80
2015,07,20,13,34,22.70
2015,07,20,13,35,22.70
2015,07,20,13,36,22.70
2015,07,20,13,37,22.80
2015,07,20,13,38,22.90
2015,07,20,13,39,22.90
2015,07,20,13,40,22.90
2015,07,20,13,41,23.00
2015,07,20,13,42,23.10
2015,07,20,13,43,23.10
2015,07,20,13,44,23.10
2015,07,20,13,45,23.10
2015,07,20,13,46,23.10
2015,07,20,13,47,23.20
2015,07,20,13,48,23.20
2015,07,20,13,49,23.30
2015,07,20,13,50,23.50
2015,07,20,13,51,23.70
2015,07,20,13,52,23.80
2015,07,20,13,53,23.90
2015,07,20,13,54,23.90
2015,07,20,13,55,23.90
2015,07,20,13,56,23.80
2015,07,20,13,57,23.80
2015,07,20,13,58,23.80
2015,07,20,13,59,23.80
2015,07,20,14,00,23.90
2015,07,20,14,01,23.90
2015,07,20,14,02,24.00
2015,07,20,14,03,24.00
2015,07,20,14,04,24.00
2015,07,20,14,05,24.00
2015,07,20,14,06,24.10
2015,07,20,14,07,24.20
2015,07,20,14,08,24.20
2015,07,20,14,09,24.20
2015,07,20,14,10,24.20
2015,07,20,14,11,24.20
2015,07,20,14,12,24.30
2015,07,20,14,13,24.30
2015,07,20,14,14,24.30
2015,07,20,14,15,24.20
2015,07,20,14,16,24.00
2015,07,20,14,17,23.90
2015,07,20,14,18,23.90
2015,07,20,14,19,23.90
2015,07,20,14,20,23.80
2015,07,20,14,21,23.60
2015,07,20,14,22,23.50
2015,07,20,14,23,23.40
2015,07,20,14,24,23.50
2015,07,20,14,25,23.60
2015,07,20,14,26,23.70
2015,07,20,14,27,23.70
2015,07,20,14,28,23.80
2015,07,20,14,29,23.80
2015,07,20,14,30,23.90
2015,07,20,14,31,24.00
2015,07,20,14,32,24.10
2015,07,20,14,33,24.10
2015,07,20,14,34,24.00
2015,07,20,14,35,24.00
2015,07,20,14,36,24.10
2015,07,20,14,37,24.10
2015,07,20,14,38,24.10
2015,07,20,14,39,24.00
2015,07,20,14,40,24.00
2015,07,20,14,41,24.10
2015,07,20,14,42,24.20
2015,07,20,14,43,24.20
2015,07,20,14,44,24.30
2015,07,20,14,45,24.40
2015,07,20,14,46,24.40
2015,07,20,14,47,24.50
2015,07,20,14,48,24.60
2015,07,20,14,49,24.80
2015,07,20,14,50,25.00
2015,07,20,14,51,25.00
2015,07,20,14,52,25.10
2015,07,20,14,53,25.10
2015,07,20,14,54,25.20
2015,07,20,14,55,25.20
2015,07,20,14,56,25.20
2015,07,20,14,57,25.20
2015,07,20,14,58,25.20
2015,07,20,14,59,25.20
2015,07,20,15,00,25.30
2015,07,20,15,01,25.40
2015,07,20,15,02,25.50
2015,07,20,15,03,25.60
2015,07,20,15,04,25.60
2015,07,20,15,05,25.60
2015,07,20,15,06,25.70
2015,07,20,15,07,25.80
2015,07,20,15,08,25.90
2015,07,20,15,09,26.00
2015,07,20,15,10,26.10
2015,07,20,15,11,26.10
2015,07,20,15,12,26.10
2015,07,20,15,13,26.10
2015,07,20,15,14,26.10
2015,07,20,15,15,26.10
2015,07,20,15,16,26.10
2015,07,20,15,17,26.10
2015,07,20,15,18,26.10
2015,07,20,15,19,26.20
2015,07,20,15,20,26.20
2015,07,20,15,21,26.30
2015,07,20,15,22,26.30
2015,07,20,15,23,26.50
2015,07,20,15,24,26.60
2015,07,20,15,25,26.70
2015,07,20,15,26,26.80
2015,07,20,15,27,26.80
2015,07,20,15,28,26.80
2015,07,20,15,29,26.70
2015,07,20,15,30,26.70
2015,07,20,15,31,26.80
2015,07,20,15,32,26.80
2015,07,20,15,33,26.80
2015,07,20,15,34,26.90
2015,07,20,15,35,27.00
2015,07,20,15,36,27.00
2015,07,20,15,37,26.90
2015,07,20,15,38,26.90
2015,07,20,15,39,26.80
2015,07,20,15,40,26.80
2015,07,20,15,41,26.70
2015,07,20,15,42,26.70
2015,07,20,15,43,26.70
2015,07,20,15,44,26.70
2015,07,20,15,45,26.80
2015,07,20,15,46,26.70
2015,07,20,15,47,26.70
2015,07,20,15,48,26.80
2015,07,20,15,49,26.90
2015,07,20,15,50,27.00
2015,07,20,15,51,27.10
2015,07,20,15,52,27.20
2015,07,20,15,53,27.20
2015,07,20,15,54,27.30
2015,07,20,15,55,27.40
2015,07,20,15,56,27.40
2015,07,20,15,57,27.40
2015,07,20,15,58,27.40
2015,07,20,15,59,27.30
2015,07,20,16,00,27.20
2015,07,20,16,01,27.10
2015,07,20,16,02,26.90
2015,07,20,16,03,26.80
2015,07,20,16,04,26.70
2015,07,20,16,05,26.70
2015,07,20,16,06,26.70
2015,07,20,16,07,26.70
2015,07,20,16,08,26.70
2015,07,20,16,09,26.70
2015,07,20,16,10,26.70
2015,07,20,16,11,26.70
2015,07,20,16,12,26.80
2015,07,20,16,13,26.80
2015,07,20,16,14,26.80
2015,07,20,16,15,26.80
2015,07,20,16,16,26.80
2015,07,20,16,17,26.70
2015,07,20,16,18,26.60
2015,07,20,16,19,26.70
2015,07,20,16,20,26.70
2015,07,20,16,21,26.70
2015,07,20,16,22,26.70
2015,07,20,16,23,26.80
2015,07,20,16,24,26.80
2015,07,20,16,25,26.80
2015,07,20,16,26,26.80
2015,07,20,16,27,26.80
2015,07,20,16,28,26.70
2015,07,20,16,29,26.70
2015,07,20,16,30,26.70
2015,07,20,16,31,26.70
2015,07,20,16,32,26.70
2015,07,20,16,33,26.70
2015,07,20,16,34,26.60
2015,07,20,16,35,26.60
2015,07,20,16,36,26.60
2015,07,20,16,37,26.40
2015,07,20,16,38,26.30
2015,07,20,16,39,26.10
2015,07,20,16,40,26.10
2015,07,20,16,41,26.10
2015,07,20,16,42,26.20
2015,07,20,16,43,26.20
2015,07,20,16,44,26.20
2015,07,20,16,45,26.20
2015,07,20,16,46,26.20
2015,07,20,16,47,26.20
2015,07,20,16,48,26.10
2015,07,20,16,49,26.00
2015,07,20,16,50,25.90
2015,07,20,16,51,25.90
2015,07,20,16,52,25.90
2015,07,20,16,53,25.80
2015,07,20,16,54,25.80
2015,07,20,16,55,25.80
2015,07,20,16,56,25.80
2015,07,20,16,57,25.70
2015,07,20,16,58,25.50
2015,07,20,16,59,25.30
2015,07,20,17,00,25.20
2015,07,20,17,01,25.20
2015,07,20,17,02,25.20
2015,07,20,17,03,25.20
2015,07,20,17,04,25.20
2015,07,20,17,05,25.20
2015,07,20,17,06,25.20
2015,07,20,17,07,25.20
2015,07,20,17,08,25.20
2015,07,20,17,09,25.20
2015,07,20,17,10,25.30
2015,07,20,17,11,25.30
2015,07,20,17,12,25.30
2015,07,20,17,13,25.30
2015,07,20,17,14,25.20
2015,07,20,17,15,25.10
2015,07,20,17,16,25.00
2015,07,20,17,17,24.90
2015,07,20,17,18,24.80
2015,07,20,17,19,24.80